• în Republica Moldova
  • Lista ţărilor
  • Pe 7 zile
  • Temperatura apei
  • Hartă satelitară
  • Meteo pe hartă
  • Widget-uri
  • user-avatar
    Intrare

    Meteo pe oră la Gjirokaster

    Astăzi, 23 August, Miercuri

    Timp Temperatura Precipitaţii Vânt Presiune Umiditate
    00:00 +13°C° 0 mm 2 m/s 652 mmHg 46%
    01:00 +13°C° 0 mm 2 m/s 652 mmHg 45%
    02:00 +12°C° 0 mm 2 m/s 652 mmHg 45%
    03:00 +12°C° 0 mm 2 m/s 652 mmHg 44%
    04:00 +12°C° 0 mm 2 m/s 652 mmHg 44%
    05:00 +13°C° 0 mm 2 m/s 653 mmHg 42%
    06:00 +15°C° 0 mm 2 m/s 653 mmHg 40%
    07:00 +16°C° 0 mm 2 m/s 654 mmHg 38%
    08:00 +18°C° 0 mm 2 m/s 654 mmHg 38%
    09:00 +20°C° 0 mm 2 m/s 655 mmHg 38%
    10:00 +23°C° 0 mm 2 m/s 655 mmHg 38%
    11:00 +23°C° 0 mm 2 m/s 655 mmHg 37%
    12:00 +24°C° 0 mm 3 m/s 655 mmHg 35%
    13:00 +25°C° 0 mm 3 m/s 656 mmHg 34%
    14:00 +23°C° 0 mm 4 m/s 655 mmHg 35%
    15:00 +23°C° 0 mm 4 m/s 655 mmHg 36%
    16:00 +22°C° 0 mm 4 m/s 655 mmHg 37%
    17:00 +20°C° 0 mm 4 m/s 654 mmHg 42%
    18:00 +18°C° 0 mm 3 m/s 654 mmHg 46%
    19:00 +16°C° 0 mm 3 m/s 654 mmHg 51%
    20:00 +14°C° 0 mm 3 m/s 654 mmHg 51%
    21:00 +15°C° 0 mm 2 m/s 654 mmHg 51%
    22:00 +14°C° 0 mm 2 m/s 654 mmHg 52%
    23:00 +14°C° 0 mm 2 m/s 654 mmHg 51%

    Mâine, 24 August, Joi

    Timp Temperatura Precipitaţii Vânt Presiune Umiditate
    00:00 +14°C° 0 mm 2 m/s 654 mmHg 51%
    01:00 +13°C° 0 mm 2 m/s 654 mmHg 50%
    02:00 +13°C° 0 mm 2 m/s 654 mmHg 50%
    03:00 +13°C° 0 mm 2 m/s 654 mmHg 50%
    04:00 +13°C° 0 mm 2 m/s 654 mmHg 50%
    05:00 +14°C° 0 mm 2 m/s 654 mmHg 47%
    06:00 +16°C° 0 mm 2 m/s 655 mmHg 45%
    07:00 +17°C° 0 mm 2 m/s 656 mmHg 42%
    08:00 +19°C° 0 mm 2 m/s 656 mmHg 38%
    09:00 +23°C° 0 mm 1 m/s 657 mmHg 34%
    10:00 +25°C° 0 mm 1 m/s 658 mmHg 30%
    11:00 +25°C° 0 mm 2 m/s 657 mmHg 28%
    12:00 +26°C° 0 mm 3 m/s 657 mmHg 26%
    13:00 +27°C° 0 mm 3 m/s 657 mmHg 25%
    14:00 +26°C° 0 mm 4 m/s 657 mmHg 25%
    15:00 +26°C° 0 mm 4 m/s 657 mmHg 26%
    16:00 +26°C° 0 mm 4 m/s 656 mmHg 27%
    17:00 +22°C° 0 mm 4 m/s 656 mmHg 32%
    18:00 +20°C° 0 mm 3 m/s 656 mmHg 37%
    19:00 +18°C° 0 mm 3 m/s 655 mmHg 42%
    20:00 +17°C° 0 mm 2 m/s 656 mmHg 42%
    21:00 +16°C° 0 mm 2 m/s 656 mmHg 42%
    22:00 +16°C° 0 mm 2 m/s 656 mmHg 43%
    23:00 +16°C° 0 mm 2 m/s 656 mmHg 43%

    Poimâine, 25 August, Vineri

    Timp Temperatura Precipitaţii Vânt Presiune Umiditate
    00:00 +15°C° 0 mm 2 m/s 656 mmHg 43%
    01:00 +15°C° 0 mm 2 m/s 655 mmHg 42%
    02:00 +15°C° 0 mm 2 m/s 655 mmHg 42%
    03:00 +14°C° 0 mm 2 m/s 655 mmHg 41%
    04:00 +14°C° 0 mm 2 m/s 655 mmHg 40%
    05:00 +15°C° 0 mm 2 m/s 656 mmHg 38%
    06:00 +17°C° 0 mm 2 m/s 656 mmHg 36%
    07:00 +18°C° 0 mm 2 m/s 657 mmHg 34%
    08:00 +21°C° 0 mm 2 m/s 657 mmHg 29%
    09:00 +24°C° 0 mm 1 m/s 658 mmHg 25%
    10:00 +26°C° 0 mm 1 m/s 658 mmHg 21%
    11:00 +27°C° 0 mm 2 m/s 658 mmHg 20%
    12:00 +28°C° 0 mm 2 m/s 658 mmHg 19%
    13:00 +28°C° 0 mm 3 m/s 658 mmHg 19%
    14:00 +28°C° 0 mm 3 m/s 658 mmHg 20%
    15:00 +27°C° 0 mm 3 m/s 657 mmHg 21%
    16:00 +27°C° 0 mm 3 m/s 657 mmHg 22%
    17:00 +24°C° 0 mm 3 m/s 656 mmHg 27%
    18:00 +21°C° 0 mm 2 m/s 656 mmHg 33%
    19:00 +18°C° 0 mm 2 m/s 655 mmHg 38%
    20:00 +18°C° 0 mm 2 m/s 655 mmHg 38%
    21:00 +17°C° 0 mm 2 m/s 655 mmHg 39%
    22:00 +16°C° 0 mm 2 m/s 655 mmHg 39%
    23:00 +16°C° 0 mm 2 m/s 655 mmHg 39%

    26 August, Sâmbătă

    Timp Temperatura Precipitaţii Vânt Presiune Umiditate
    00:00 +15°C° 0 mm 2 m/s 655 mmHg 39%
    01:00 +15°C° 0 mm 2 m/s 655 mmHg 40%
    02:00 +15°C° 0 mm 2 m/s 655 mmHg 40%
    03:00 +14°C° 0 mm 2 m/s 654 mmHg 41%
    04:00 +14°C° 0 mm 2 m/s 654 mmHg 41%
    05:00 +15°C° 0 mm 2 m/s 655 mmHg 39%
    06:00 +17°C° 0 mm 2 m/s 655 mmHg 38%
    07:00 +18°C° 0 mm 2 m/s 656 mmHg 36%
    08:00 +21°C° 0 mm 2 m/s 656 mmHg 32%
    09:00 +24°C° 0 mm 1 m/s 657 mmHg 27%
    10:00 +27°C° 0 mm 1 m/s 657 mmHg 23%
    11:00 +28°C° 0 mm 2 m/s 657 mmHg 22%
    12:00 +28°C° 0 mm 2 m/s 657 mmHg 21%
    13:00 +29°C° 0 mm 3 m/s 657 mmHg 20%
    14:00 +28°C° 0 mm 3 m/s 656 mmHg 21%
    15:00 +28°C° 0 mm 3 m/s 656 mmHg 22%
    16:00 +27°C° 0 mm 3 m/s 656 mmHg 23%
    17:00 +25°C° 0 mm 3 m/s 655 mmHg 28%
    18:00 +21°C° 0 mm 2 m/s 655 mmHg 34%
    19:00 +19°C° 0 mm 2 m/s 654 mmHg 39%
    20:00 +18°C° 0 mm 2 m/s 654 mmHg 39%
    21:00 +18°C° 0 mm 2 m/s 654 mmHg 40%
    22:00 +17°C° 0 mm 2 m/s 654 mmHg 40%
    23:00 +17°C° 0 mm 2 m/s 654 mmHg 40%

    27 August, Duminică

    Timp Temperatura Precipitaţii Vânt Presiune Umiditate
    00:00 +16°C° 0 mm 2 m/s 654 mmHg 41%
    01:00 +16°C° 0 mm 2 m/s 654 mmHg 41%
    02:00 +16°C° 0 mm 2 m/s 654 mmHg 41%
    03:00 +15°C° 0 mm 2 m/s 653 mmHg 41%
    04:00 +15°C° 0 mm 2 m/s 653 mmHg 42%
    05:00 +17°C° 0 mm 2 m/s 654 mmHg 39%
    06:00 +18°C° 0 mm 2 m/s 654 mmHg 37%
    07:00 +21°C° 0 mm 1 m/s 655 mmHg 35%
    08:00 +23°C° 0 mm 1 m/s 655 mmHg 31%
    09:00 +26°C° 0 mm 1 m/s 655 mmHg 26%
    10:00 +28°C° 0 mm 1 m/s 656 mmHg 22%
    11:00 +29°C° 0 mm 2 m/s 656 mmHg 21%
    12:00 +29°C° 0 mm 2 m/s 655 mmHg 20%
    13:00 +30°C° 0 mm 3 m/s 655 mmHg 20%
    14:00 +29°C° 0 mm 3 m/s 655 mmHg 21%
    15:00 +29°C° 0 mm 3 m/s 655 mmHg 22%
    16:00 +28°C° 0 mm 4 m/s 654 mmHg 24%
    17:00 +26°C° 0 mm 3 m/s 654 mmHg 29%
    18:00 +22°C° 0 mm 3 m/s 653 mmHg 34%
    19:00 +19°C° 0 mm 2 m/s 653 mmHg 39%
    20:00 +19°C° 0 mm 2 m/s 653 mmHg 38%
    21:00 +18°C° 0 mm 2 m/s 653 mmHg 38%
    22:00 +18°C° 0 mm 2 m/s 653 mmHg 38%
    23:00 +18°C° 0 mm 2 m/s 653 mmHg 38%

    28 August, Luni

    Timp Temperatura Precipitaţii Vânt Presiune Umiditate
    00:00 +17°C° 0 mm 2 m/s 653 mmHg 38%
    01:00 +17°C° 0 mm 2 m/s 652 mmHg 38%
    02:00 +17°C° 0 mm 2 m/s 652 mmHg 38%
    03:00 +16°C° 0 mm 2 m/s 652 mmHg 39%
    04:00 +16°C° 0 mm 2 m/s 652 mmHg 39%
    05:00 +17°C° 0 mm 2 m/s 652 mmHg 37%
    06:00 +20°C° 0 mm 1 m/s 653 mmHg 35%
    07:00 +21°C° 0 mm 1 m/s 653 mmHg 33%
    08:00 +24°C° 0 mm 1 m/s 654 mmHg 29%
    09:00 +26°C° 0 mm 2 m/s 654 mmHg 26%
    10:00 +28°C° 0 mm 2 m/s 655 mmHg 22%
    11:00 +29°C° 0 mm 2 m/s 654 mmHg 21%
    12:00 +29°C° 0 mm 3 m/s 654 mmHg 20%
    13:00 +30°C° 0 mm 4 m/s 654 mmHg 20%
    14:00 +30°C° 0 mm 4 m/s 654 mmHg 22%
    15:00 +29°C° 0 mm 4 m/s 653 mmHg 24%
    16:00 +28°C° 0 mm 4 m/s 653 mmHg 26%
    17:00 +26°C° 0 mm 4 m/s 653 mmHg 32%
    18:00 +22°C° 0 mm 3 m/s 652 mmHg 39%
    19:00 +20°C° 0 mm 3 m/s 652 mmHg 46%
    20:00 +19°C° 0 mm 3 m/s 652 mmHg 46%
    21:00 +18°C° 0 mm 2 m/s 652 mmHg 46%
    22:00 +18°C° 0 mm 2 m/s 652 mmHg 46%
    23:00 +18°C° 0 mm 2 m/s 651 mmHg 45%
    Arată mai mult